Location: Arrabal de la Barceloneta
(41.3167°N, 1.9167°E)
Time: 05:44:54
(UTC+00:00)

Daily predictions for brighter satellites

Satellite Brightness Start Highest point End
(mag) Time Altitude Azimuth Time Altitude Azimuth Time Altitude Azimuth
Cosmos 2058 Rocket 3.5 00:01:54 10° NNW 00:05:52 55° WNW 00:05:52 55° WNW
Cosmos 2237 Rocket 2.2 00:08:47 61° SW 00:09:42 76° WNW 00:15:21 10° NNE
GP-B 3.3 00:05:28 10° N 00:09:41 64° ENE 00:09:41 64° ENE
EO 1 Del DPAF 4.3 00:07:22 10° NNE 00:10:03 40° NE 00:10:03 40° NE
Cosmos 1812 Rocket 4.3 00:10:05 10° N 00:14:15 44° ENE 00:14:18 44° E
Meteor 1-11 4.4 00:16:38 53° SE 00:17:27 59° E 00:22:56 10° NNE
Cosmos 1354 Rocket 3.9 00:13:09 10° NNW 00:18:29 74° WSW 00:18:48 72° SW
Cosmos 1777 Rocket 4.5 00:14:48 10° N 00:19:59 55° ENE 00:21:16 44° ESE
Cosmos-2242 4.4 00:16:33 10° NNE 00:20:26 30° ENE 00:21:03 29° E
ALOS 2 4.5 00:24:01 20° W 00:24:01 20° W 00:26:39 10° NW
SL-4 R/B 3.1 00:27:43 33° ENE 00:27:43 33° ENE 00:29:50 10° ENE
USA 267 3.7 00:27:12 40° SW 00:27:12 40° SW 00:33:11 10° WNW
CZ-2D R/B 3.8 00:24:52 10° NE 00:28:45 21° E 00:29:56 19° ESE
Cosmos 1455 4.3 00:26:21 10° NW 00:28:14 19° WNW 00:28:14 19° WNW
Lacrosse 5 rocket 4.0 00:27:30 10° WNW 00:29:23 13° NNW 00:31:16 10° N
Resurs 1-4 Rocket 3.7 00:26:23 10° NE 00:30:34 23° E 00:31:49 21° ESE
PSLV R/B 4.1 00:34:41 10° N 00:38:48 48° WNW 00:38:49 48° WNW
Cosmos 1825 Rocket 4.1 00:42:36 49° ESE 00:42:47 49° E 00:47:07 10° NNE
Cosmos 2278 Rocket 2.8 00:38:32 10° NW 00:43:47 40° WSW 00:43:47 40° WSW
SJ 16-02 2.0 00:46:15 10° N 00:50:32 50° ENE 00:51:20 43° ESE
ADEOS II 4.2 00:50:54 10° NE 00:54:15 17° E 00:56:36 13° ESE
MOZ.5/SAFIR/RUBIN 5/SL-8 4.1 00:56:36 47° SE 00:57:42 61° ENE 01:02:24 10° N
Cosmos 1634 Rocket 3.9 00:52:40 10° N 00:59:00 79° W 01:00:50 49° S
Cosmos 1953 Rocket 3.9 01:03:15 51° ESE 01:03:39 53° E 01:07:55 10° NNE
CZ-4 R/B 3.6 00:59:06 10° NNE 01:03:46 81° WNW 01:04:16 70° SW
Cosmos 2279 Rocket 4.1 00:58:29 10° N 01:04:45 73° E 01:07:15 38° SSE
USA 229 DEB 3.9 01:09:30 40° SSE 01:11:23 53° ESE 01:17:52 10° NE
USA 229 3.9 01:09:34 40° SSE 01:11:26 53° ESE 01:17:55 10° NE
In-Cosmos 22 Rocket 4.2 01:10:34 50° S 01:12:05 82° E 01:17:41 10° NNE
BREEZE-M DEB (TANK) 4.1 01:10:19 10° WNW 01:13:37 22° NNW 01:15:38 10° NE
ATLAS CENTAUR R/B 4.4 01:12:05 21° W 01:16:25 56° NNW 01:31:35 10° NE
Cosmos 1758 Rocket 4.2 01:19:49 41° W 01:20:07 42° WNW 01:24:22 10° N
Cosmos 1892 2.8 01:20:42 66° WNW 01:20:42 66° WNW 01:24:26 10° N
Cosmos 1356 3.7 01:21:20 64° NNE 01:21:20 64° NNE 01:24:17 10° NNE
Cosmos 1408 2.6 01:21:36 74° NNW 01:21:36 74° NNW 01:25:00 10° N
Cosmos 1943 4.3 01:20:06 27° SE 01:22:04 35° ESE 01:27:07 10° NE
NOSS 3-1 (C) 3.1 01:22:02 48° SW 01:23:35 82° NW 01:29:43 10° NNE
Cosmos 1607 4.4 01:18:29 10° NW 01:24:19 39° WSW 01:24:55 38° SW
SL-16 R/B 2.7 01:22:25 25° SSE 01:26:15 71° ENE 01:32:25 10° N
Cosmos 2098 Rocket 4.5 01:23:20 26° SSE 01:26:31 48° E 01:31:39 10° NNE
X-37B 2.2 01:28:09 29° E 01:28:09 29° E 01:29:55 10° ENE
Cosmos 724 4.2 01:21:27 10° NNW 01:27:38 82° WSW 01:30:57 28° SSE
NOSS 3-1 (A) 3.2 01:29:33 45° S 01:31:04 65° ESE 01:37:02 10° NE
NOSS 2-3 (E) 3.4 01:30:35 64° WSW 01:31:10 80° NW 01:35:48 10° NNE
Cosmos 468 Rocket 4.0 01:30:05 46° S 01:31:32 69° ESE 01:36:42 10° NNE
Nadezhda 4 Rocket 4.1 01:35:59 33° S 01:38:55 73° E 01:45:03 10° NNE
Cosmos 1943 Rocket 2.0 01:36:29 10° NNW 01:41:59 72° WSW 01:44:18 35° S
Helios 1A 3.9 01:42:33 32° W 01:42:33 32° W 01:46:02 10° NNW
Cosmos 405 Rocket 2.5 01:43:20 70° WSW 01:43:33 73° W 01:47:14 10° N
Cosmos 2058 2.8 01:43:57 55° S 01:44:47 79° E 01:48:53 10° N
NPP 3.6 01:40:57 10° NNE 01:46:23 87° ESE 01:48:32 38° SSW
SL-16 R/B 3.2 01:44:07 26° WSW 01:46:31 37° WNW 01:51:46 10° N
Cosmos 2237 Rocket 4.5 01:52:12 10° WNW 01:54:46 13° NW 01:57:20 10° NNW
Cosmos 1242 Rocket 3.8 01:52:56 10° N 01:56:17 37° ENE 01:58:22 19° SE
Cosmos 1763 Rocket 3.4 01:54:55 40° SW 01:56:43 72° WNW 02:01:49 10° NNE
Cosmos-2242 4.5 01:54:23 10° NW 01:57:48 22° W 01:57:52 22° W
Meteor 1-29 3.3 01:54:39 10° NNE 01:58:02 58° E 01:58:43 47° SSE
SeaSat 1 3.2 01:53:39 10° NE 01:58:21 42° ESE 02:00:43 25° SSE
ARGOS Delta rocket 4.4 01:53:59 10° N 01:59:20 57° WNW 02:01:35 33° SW
OPS 6432 4.3 01:56:48 10° NW 01:59:57 79° WSW 02:01:17 38° SSE
Cosmos 921 Rocket 4.0 01:58:13 25° SSE 02:00:04 39° E 02:04:00 10° NNE
USA 281 4.1 01:54:34 10° SE 02:00:50 50° ENE 02:07:08 10° NNW
CREW DRAGON DEMO-1 DEB 3.6 02:02:25 36° ENE 02:02:25 36° ENE 02:04:07 10° ENE
Helios 1B rocket 2.6 01:59:00 10° N 02:03:01 58° WNW 02:04:05 42° SW
Cosmos 1825 2.7 02:04:08 38° W 02:04:38 41° WNW 02:08:13 10° N
SL-4 R/B 3.8 02:03:14 11° WNW 02:06:01 23° NNW 02:08:57 10° NE
IRS-1D 3.8 02:02:29 10° NNE 02:07:38 61° ESE 02:10:36 24° S
CZ-2D R/B 2.6 02:04:03 10° N 02:09:01 47° WNW 02:11:15 29° SW
Cosmos 2263 4.4 02:03:27 10° NNW 02:09:09 72° ENE 02:14:46 10° SSE
Cosmos 2369 Rocket 2.1 02:03:40 10° NNW 02:09:25 84° WSW 02:14:50 11° SSE
Resurs 1-4 Rocket 2.7 02:05:31 10° N 02:10:32 45° WNW 02:12:54 28° WSW
Cosmos 1092 Rocket 4.0 02:09:24 23° S 02:13:26 80° E 02:19:35 10° N
SL-19 R/B 4.1 02:08:28 10° N 02:13:40 70° WNW 02:16:22 29° SSW
Cosmos 1633 2.7 02:14:15 34° SSE 02:15:34 63° E 02:19:03 10° NNE
CBERS-1 4.4 02:11:15 10° NNE 02:16:20 59° E 02:19:47 20° S
ADEOS Rocket 3.4 02:09:19 10° SSE 02:16:58 90° WSW 02:24:00 10° NNW
Cosmos 1076 Rocket 3.4 02:16:07 32° S 02:18:04 86° ESE 02:22:20 10° N
Cosmos 1437 Rocket 3.0 02:16:15 10° NNW 02:20:04 49° W 02:21:07 37° SW
UNK 4.3 02:19:17 31° SW 02:20:35 38° W 02:24:54 10° NNW
Cosmos 2221 2.8 02:22:56 10° NNW 02:27:05 47° W 02:28:47 30° SSW
Lacrosse 4 Rocket 4.4 02:24:42 10° N 02:27:36 18° NE 02:30:27 10° E
Aureole 3 Rocket 2.8 02:24:05 10° N 02:27:39 83° W 02:31:03 18° S
Meteor 2-15 4.4 02:22:17 10° N 02:28:26 81° W 02:33:53 13° S
SJ 16-02 3.3 02:26:21 10° WNW 02:28:16 14° W 02:28:16 14° W
AQUA 4.5 02:25:34 10° N 02:30:03 42° WNW 02:32:22 25° SW
Cosmos 2151 3.2 02:29:37 20° S 02:32:25 69° E 02:36:37 10° NNE
MINOTAUR 4 R/B 4.5 02:31:44 34° SW 02:32:39 41° W 02:36:02 10° NNW
Cosmos 1898 Rocket 3.7 02:29:06 10° NNW 02:34:09 49° WSW 02:37:41 19° S
ADEOS II 2.3 02:29:09 10° N 02:34:20 60° WNW 02:37:32 23° SW
Cosmos 1656 Rocket 3.6 02:29:19 10° NNW 02:35:02 82° WSW 02:40:41 10° SSE
Cosmos 1606 2.7 02:32:28 10° NNW 02:36:17 59° W 02:38:16 25° SSW
OE (NEXTSAT) 4.2 02:37:13 31° WSW 02:38:43 82° SSE 02:42:10 10° ENE
Cosmos 841 Rocket 3.6 02:36:01 24° SW 02:39:06 65° WNW 02:44:15 10° NNE
Cosmos 1428 Rocket 4.5 02:34:17 18° S 02:39:10 81° W 02:45:31 10° N
ATLAS 5 CENTAUR R/B 2.3 02:39:49 18° S 02:42:14 39° ESE 02:46:10 10° NE
Cosmos 1937 Rocket 3.6 02:38:39 10° NNW 02:43:52 57° WSW 02:49:03 10° S
USA 305 4.0 02:41:45 19° S 02:44:09 34° SE 02:47:59 10° ENE
Cosmos 1437 2.2 02:41:27 10° N 02:44:15 83° W 02:45:47 24° S
Meteor 1-28 Rocket 3.4 02:46:50 20° S 02:49:12 51° W 02:52:55 10° NNW
Cosmos 1570 Rocket 4.0 02:45:36 20° SSW 02:49:20 79° WNW 02:54:35 10° NNE
CZ-4C R/B 2.9 02:49:12 11° S 02:52:36 81° WSW 02:56:05 10° NNW
Cosmos 540 Rocket 4.2 02:50:57 19° SW 02:54:11 40° WNW 02:59:00 10° N
IRIDIUM 114 4.4 02:49:49 10° N 02:55:04 81° E 03:00:17 10° S
Cosmos 1782 4.1 02:52:33 10° N 02:56:22 42° ENE 03:00:10 10° SSE
Cosmos 2208 Rocket 4.1 02:52:29 17° SSW 02:56:46 84° WNW 03:02:15 10° NNE
Cosmos 1814 Rocket 4.1 02:52:56 18° SSW 02:56:48 67° WNW 03:01:59 10° NNE
USA 290 2.1 02:56:13 21° SSW 02:58:15 89° E 03:01:30 10° NNE
IDEFIX/ARIANE 42P 2.7 02:54:19 10° N 02:59:32 66° WNW 03:03:56 14° SSW
TIMED 4.5 02:56:22 18° SSW 02:59:33 75° WNW 03:03:57 10° NNE
NOSS 2-2 (E) 3.0 03:00:05 20° SW 03:02:18 73° NW 03:05:57 10° NNE
Cosmos 1933 3.3 02:58:33 10° N 03:02:38 85° W 03:06:43 10° S
X-37B 1.6 03:00:27 10° W 03:03:31 45° N 03:06:36 10° ENE
IRIDIUM 103 4.3 02:58:59 10° N 03:04:14 83° W 03:09:26 10° S
USA 306 3.4 03:02:49 16° SSW 03:05:57 51° SE 03:10:04 10° ENE
Cosmos 1943 4.2 03:01:55 14° WSW 03:06:04 34° WNW 03:11:12 10° N
ASTEX 1 3.4 03:01:18 10° S 03:06:16 89° W 03:11:15 10° N
SL-16 R/B 4.0 03:07:30 14° WSW 03:10:21 18° W 03:14:26 10° NW
Cosmos 1553 Rocket 4.0 03:05:23 10° N 03:11:44 84° W 03:17:57 10° S
ARIANE 5 R/B 2.5 03:07:58 10° NNE 03:12:59 88° ESE 03:17:59 10° SSW
S3M 4.3 03:08:07 10° N 03:14:15 69° E 03:20:24 10° SSE
Cosmos 2292 Rocket 3.0 03:11:30 14° SSW 03:14:18 53° W 03:17:16 10° N
NOSS 2-2 (C) 3.0 03:11:52 16° SW 03:14:31 71° NW 03:18:06 10° NNE
COSMOS 2441 4.4 03:10:59 10° N 03:15:51 75° WNW 03:20:38 10° SSW
EXPRESS MD2 4.5 03:08:11 10° WSW 03:16:25 63° NNW 03:20:24 10° NE
CZ-4C R/B 4.1 03:14:03 10° SSE 03:17:15 18° ESE 03:20:45 10° ENE
Cosmos 1151 Rocket 3.3 03:13:44 10° N 03:18:00 70° E 03:22:13 10° SSE
DELTA 2 R/B (1) 3.7 03:15:24 12° WSW 03:20:32 61° SSE 03:26:01 10° E
IRIDIUM 106 4.5 03:17:22 10° NNW 03:22:29 56° W 03:27:33 10° SSW
IRS-P3 4.3 03:18:49 10° N 03:24:04 59° WNW 03:29:16 10° SSW
SeaSat 1 3.8 03:31:31 10° N 03:35:39 28° NW 03:39:46 10° WSW
GPS 2-04 Rocket1 4.1 03:33:02 10° SW 03:36:02 22° SSE 03:38:57 10° ESE
Cosmos 1812 3.3 03:33:51 10° N 03:37:39 59° E 03:41:25 10° SSE
Spot 4 Rocket 4.1 03:33:42 10° NNE 03:38:52 88° WNW 03:44:00 10° SSW
Cosmos 1271 Rocket 2.7 03:36:56 10° N 03:40:41 83° E 03:44:25 10° S
Cosmos 1862 3.5 03:40:24 10° S 03:44:24 78° E 03:48:27 10° N
USA 281 3.9 03:39:46 10° SSW 03:45:28 31° WSW 03:51:13 10° NW
CZ-4B R/B 4.0 03:40:46 10° N 03:45:50 48° WNW 03:50:50 10° SW
